Regional Weather Roundup
Issued by NWS New Orleans/Baton Rouge, LA

Home | Current Version | Previous Version | Graphics & Text | Print | Product List | Glossary On
Versions: 1 2 3 4 5 6 7 8 9 10 11 12 13 14 15 16 17 18 19 20 21 22 23 24 25 26 27 28 29 30 31 32 33 34 35 36 37 38 39 40 41 42 43 44 45 46 47 48 49 50
745
ASUS44 KLIX 240105
RWRLIX
NEW ORLEANS REGIONAL WEATHER ROUNDUP
NATIONAL WEATHER SERVICE NEW ORLEANS LA
800 PM CDT WED JUL 23 2014

NOTE: "FAIR" INDICATES FEW OR NO CLOUDS BELOW 12,000 FEET WITH NO
      SIGNIFICANT WEATHER AND/OR OBSTRUCTIONS TO VISIBILITY.
      SKY/WX - SKY CONDITION AND SIGNIFICANT WEATHER.
      TMP - AIR TEMPERATURE.     DP    - DEWPOINT TEMPERATURE.
      RH  - RELATIVE HUMIDITY.   PRES  - PRESSURE.
      HI  - HEAT INDEX.          WCI   - WIND CHILL INDEX.

*  THESE STATIONS ARE NOT NWS OR FAA STATIONS AND ARE NOT UNDER
   NWS QUALITY CONTROL.

LAZ038-040-048-061>063-065>067-069-240200-
SOUTHEAST LOUISIANA

CITY           SKY/WX    TMP DP  RH WIND       PRES   REMARKS
N.O. AUDUBON   NOT AVBL
N.O. INTL ARPT MOCLDY    79  72  79 S5        29.99R
N.O. LAKEFRONT PTCLDY    81  72  74 S3        30.00R
N.O. DOWNTOWN* CLOUDY    82  70  65 S6        30.00R
SLIDELL        PTCLDY    80  72  76 CALM      29.99R
BATON ROUGE    PTCLDY    81  74  79 S3        29.99R
BOOTHVILLE       N/A     80  73  79 S6        29.99R
BELLE CHASSE   MOCLDY    78  72  81 CALM      29.99R
BOGALUSA*        N/A     82  73  74 CALM      30.02R
GALLIANO*      NOT AVBL
NEW ROADS*       N/A     81  75  83 CALM      29.99R
GONZALES*        N/A     80  77  90 CALM      29.98R
HAMMOND*       PTCLDY    81  72  74 CALM      30.01R
HOUMA*         PTCLDY    80  70  73 E3        29.99R
PORT FOURCHON* CLEAR     81  73  78 S5        30.00R

$$

MSZ070-080>082-240200-
SOUTHERN MISSISSIPPI

CITY           SKY/WX    TMP DP  RH WIND       PRES   REMARKS
MCCOMB           N/A     81  73  76 S3        30.01R
GULFPORT       CLEAR     82  71  69 S3        29.99R
BILOXI         CLEAR     79  72  77 S3        30.00R
PASCAGOULA     CLEAR     78  73  84 CALM      30.00R
STENNIS ARPT*  CLEAR    N/A N/A N/A SE5       30.00R

$$

COASTAL OBSERVATIONS
LAKE AND NEARSHORE STATIONS

STATION/POSITION TIME  TEMP    WIND        PRES    WAVE
                       AIR SEA DIR/SP/G            HT/PER
                 (UTC) (F)     (DEG/KT/KT) (MB)    (FT/S)
WAVELAND YACHT   0100   81     170/  5/  7 1014.9
GRAND ISLE       0100   80 85  160/  2/  4 1015.9
SOUTHWEST PASS   0100   82 85  200/  5/  6 1015.7
NEW CANAL        0100   81 82  210/  4/  5 1015.9
SHELL BEACH      0100   80 81  130/  7/  8 1015.0

OFFSHORE STATIONS

STATION/POSITION TIME  TEMP    WIND        PRES    WAVE
                       AIR SEA DIR/SP/G            HT/PER
                 (UTC) (F)     (DEG/KT/KT) (MB)    (FT/S)
64 S DAUPHIN ISL 0025   82 85  170/  8/ 10 1015.4

$$




USA.gov is the U.S. government's official web portal to all federal, state and local government web resources and services.